Regional Weather Roundup
Issued by NWS Cleveland, OH

Home | Current Version | Previous Version | Graphics & Text | Print | Product List | Glossary On
Versions: 1 2 3 4 5 6 7 8 9 10 11 12 13 14 15 16 17 18 19 20 21 22 23 24 25 26 27 28 29 30 31 32 33 34 35 36 37 38 39 40 41 42 43 44 45 46 47 48 49 50
000
ASUS41 KCLE 241310
RWRCLE
OHIO REGIONAL WEATHER ROUNDUP
NATIONAL WEATHER SERVICE CLEVELAND, OH
800 AM EST MON NOV 24 2014

NOTE: "FAIR" INDICATES FEW OR NO CLOUDS BELOW 12,000 FEET WITH NO
SIGNIFICANT WEATHER AND/OR OBSTRUCTIONS TO VISIBILITY.

OHZ001>008-015>018-024>027-034-035-043-044-241400-
   NORTHWEST OHIO

CITY           SKY/WX    TMP DP  RH WIND       PRES   REMARKS
DEFIANCE       LGT RAIN  55  51  86 SW15G31   29.15F
FINDLAY        LGT RAIN  59  54  83 S22G28    29.20F
TOLEDO EXPRESS RAIN      54  51  90 SW16G33   29.17S FOG
TOLEDO EXEC    LGT RAIN  58  52  80 SW10G28   29.19S
LIMA           LGT RAIN  59  54  83 S23G29    29.19F
$$

OHZ009>014-019>023-028>033-038-089-241400-
   NORTHEAST OHIO

CITY           SKY/WX    TMP DP  RH WIND       PRES   REMARKS
CLE-HOPKINS    CLOUDY    60  52  74 S18G29    29.30R
CLE-LAKEFRONT  MOCLDY    61  52  72 S18G36    29.27R
CUY CO. ARPT   MOCLDY    61  54  77 SW21G35   29.28S
LORAIN-ELYRIA  CLOUDY    59  52  77 SW22G30   29.26F
ASHTABULA      LGT RAIN  58  53  84 S22G29    29.32R
AKRON-CANTON   CLOUDY    59  53  80 S18G28    29.34F
WOOSTER        CLOUDY   N/A N/A N/A S20G30    29.32F
MANSFIELD      CLOUDY    59  53  80 S29G38    29.30R
YOUNGSTOWN     MOCLDY    59  52  77 S18G30    29.36S
$$

OHZ042-051>053-060>062-070>072-077>081-241400-
  SOUTHWEST OHIO

CITY           SKY/WX    TMP DP  RH WIND       PRES   REMARKS
CINC-COVINGTON MOCLDY    61  50  67 S26G38    29.31R
CINC-LUNKEN    MOCLDY    61  53  75 S31G43    29.31F
HAMILTON       PTCLDY    62  53  72 S15G25    29.29S
DAYTON         LGT RAIN  61  54  77 S23G39    29.25F
WRIGHT-PAT AFB MOCLDY    61  54  78 S23G35    29.27F
DAYTON GENERAL CLOUDY    60  54  80 S26G36    29.27F
WILMINGTON     MOCLDY    58  52  80 S22G33    29.30F
$$

OHZ036-037-039>041-045>050-054>059-063>069-073>076-082>088-241400-
  CENTRAL AND SOUTHEAST OHIO

CITY           SKY/WX    TMP DP  RH WIND       PRES   REMARKS
COLUMBUS       MOCLDY    60  52  74 S18G26    29.33F
OSU AIRPORT    PTCLDY    59  53  80 S17G30    29.30F
BOLTON FIELD   MOCLDY    59  54  82 S23G32    29.33F
RICKENBACK AFB MOCLDY    59  54  83 S13G20    29.34S
NEWARK         CLOUDY    60  53  77 S10G23    29.36S
MARION         MOCLDY    59  53  80 S29G40    29.26F
LANCASTER      PTCLDY    60  53  77 S18G25    29.37S
ZANESVILLE     MOCLDY    58  52  80 S10       29.39F
NEW PHILLY     MOCLDY    60  54  80 S12G24    29.39S
$$


USA.gov is the U.S. government's official web portal to all federal, state and local government web resources and services.